This demonstration page uses our WeatherBlox Daily Observations layout. Learn more.

Left ArrowRight Arrow

30.21309, -93.2044

Hourly Observations for July 22, 2019

Temp ( °F °C ) Dew Point ( °F °C ) Humidity (%) Winds ( mph kmh ) Pressure ( in mb ) Visibility ( mi km ) Precip ( " mm )
12:15 am 00:15 Clear 75 24 74 23.2 95 95 Calm 29.97 1015 10 16 0.00 0.00
12:35 am 00:35 Clear 76 24.5 74 23.5 94 94 Calm 29.96 1015 10 16 0.00 0.00
12:55 am 00:55 Clear 77 24.8 74 23.5 93 93 Calm 29.95 1014 10 16 0.00 0.00
1:15 am 01:15 Clear 77 24.9 74 23.6 93 93 Calm 29.95 1014 10 16 0.00 0.00
1:35 am 01:35 Clear 75 24.1 74 23.3 95 95 Calm 29.96 1015 10 16 0.00 0.00
1:55 am 01:55 Clear 75 24 74 23.5 97 97 Calm 29.97 1015 10 16 0.00 0.00
2:15 am 02:15 Clear 76 24.2 74 23.6 96 96 NE 5 7 29.97 1015 10 16 0.00 0.00
2:35 am 02:35 Clear 76 24.2 74 23.5 96 96 NNE 5 7 29.97 1015 10 16 0.00 0.00
2:55 am 02:55 Clear 75 24 74 23.5 97 97 NNE 3 6 29.97 1015 10 16 0.00 0.00
3:15 am 03:15 Clear 75 24 74 23.5 97 97 Calm 29.97 1015 10 16 0.00 0.00
3:35 am 03:35 Clear 75 24 74 23.5 97 97 Calm 29.97 1015 10 16 0.00 0.00
3:55 am 03:55 Clear 75 24 74 23.5 97 97 Calm 29.97 1015 10 16 0.00 0.00
4:15 am 04:15 Clear 75 24.1 74 23.6 97 97 Calm 29.97 1015 10 16 0.00 0.00
4:35 am 04:35 Clear 75 24 74 23.6 98 98 Calm 29.97 1015 10 16 0.00 0.00
4:55 am 04:55 Clear 76 24.2 75 23.7 97 97 Calm 29.97 1015 10 16 0.00 0.00
5:15 am 05:15 Clear 76 24.2 74 23.6 96 96 Calm 29.97 1015 10 16 0.00 0.00
5:35 am 05:35 Mostly Cloudy 76 24.5 75 24 97 97 Calm 29.98 1015 10 16 0.00 0.00
6:00 am 06:00 Mostly Cloudy 75 24 75 24 100 100 Calm 29.98 1015 10 16 0.00 0.00
6:50 am 06:50 Mostly Cloudy 75 24 75 24 100 100 Calm 29.99 1016 10 16 0.00 0.00
7:50 am 07:50 Mostly Cloudy 77 25 77 25 100 100 Calm 30.00 1016 10 16 0.00 0.00
8:50 am 08:50 Mostly Cloudy 79 26 75 24 89 89 Calm 30.02 1017 10 16 0.00 0.00
9:50 am 09:50 Mostly Cloudy 82 28 77 25 84 84 Calm 30.02 1017 10 16 0.00 0.00
10:50 am 10:50 Mostly Cloudy 82 28 77 25 84 84 SE 6 9 30.02 1017 10 16 0.00 0.00
11:45 am 11:45 Mostly Cloudy with Heavy Rain 79 26 77 25 94 94 SW 12 19 30.03 1017 1 1 0.00 0.00
12:45 pm 12:45 Mostly Cloudy 75 24 73 23 94 94 SW 12 19 30.02 1017 7 11 0.00 0.00
1:48 pm 13:48 Mostly Cloudy 77 25 73 23 89 89 Calm 29.99 1016 10 16 0.00 0.00
2:54 pm 14:54 Partly Cloudy 79 26 75 24 89 89 Calm 29.99 1016 10 16 0.00 0.00
3:53 pm 15:53 Mostly Sunny 81 27 77 25 89 89 NW 7 11 29.97 1015 10 16 0.00 0.00
4:55 pm 16:55 Mostly Sunny 82 28 77 25 84 84 W 7 11 29.96 1015 10 16 0.00 0.00
5:50 pm 17:50 Mostly Sunny 82 28 77 25 84 84 Calm 29.95 1014 10 16 0.00 0.00
6:55 pm 18:55 Mostly Sunny 82 28 77 25 84 84 SW 9 15 29.94 1014 10 16 0.00 0.00
7:50 pm 19:50 Mostly Sunny 81 27 75 24 84 84 WSW 8 13 29.95 1014 10 16 0.00 0.00
8:55 pm 20:55 Mostly Clear 79 26 73 23 84 84 Calm 29.97 1015 10 16 0.00 0.00
9:55 pm 21:55 Mostly Clear 77 25 75 24 94 94 Calm 29.96 1015 10 16 0.00 0.00
10:15 pm 22:15 Partly Cloudy 78 25.4 74 23.3 88 88 SSW 3 6 29.96 1015 10 16 0.00 0.00
10:35 pm 22:35 Clear 77 25 74 23.5 91 91 Calm 29.94 1014 10 16 0.00 0.00
10:55 pm 22:55 Clear 77 24.9 74 23.5 92 92 N 6 9 29.97 1015 10 16 0.00 0.00
11:15 pm 23:15 Mostly Cloudy 76 24.7 74 23.5 93 93 N 3 6 29.98 1015 10 16 0.00 0.00
11:35 pm 23:35 Cloudy 77 24.8 74 23.5 93 93 Calm 29.98 1015 10 16 0.00 0.00
11:55 pm 23:55 Cloudy 77 25.2 74 23.5 90 90 Calm 29.97 1015 10 16 0.00 0.00

Powered by AerisWeather